Location: Allos
(44.2333°N, 6.6333°E)
Time: 10:08:04
(UTC+00:00)

Meteor 2-6 Rocket - Pass Details

Date: 01 December 2020
Orbit: 806 x 914 km, 81.3° (Epoch: 26 January)

Event Time Altitude Azimuth Distance (km) Brightness Sun altitude
Rises 17:24:42 0° 173° (S) 3,414 7.5 -15.4°
Reaches altitude 10° 17:27:12 10° 169° (SSE) 2,465 6.7 -15.9°
Maximum altitude 17:32:34 51° 94° (E) 1,039 4.3 -16.8°
Enters shadow 17:37:45 11° 21° (NNE) 2,385 6.2 -17.7°
